Wind_Speed
12 13 13 14 14 12 13 14 12 10 14 18 13 10 11 9 10 13 14 19 20 14 10 10 11 13 18 15 12 13 19 26 24 20 21 22 26 28 28 26 23 24 24 23 23 23 24 25 24 26 25 22 20 20 21 22 20 17 17 18 18 18 17 18 18 19 20 20 21 22 22 21 21 22 22 23 23 23 24 25 27 27 27 27 27 27
13 13 14 16 16 13 13 13 11 10 14 19 16 13 12 9 8 12 17 21 25 23 17 12 14 15 20 19 16 14 14 20 22 19 19 20 24 26 29 31 30 29 27 25 24 23 24 24 24 26 25 21 20 21 21 21 18 15 17 19 19 19 18 18 18 19 19 19 19 21 22 22 22 22 22 23 22 22 23 24 25 26 27 28 28 28
13 13 14 17 17 15 14 12 14 15 17 20 18 15 12 10 9 13 21 21 23 25 19 14 18 15 17 19 18 16 14 20 23 19 19 21 23 25 28 32 34 32 29 27 26 25 25 25 25 24 22 20 20 20 19 19 17 15 17 19 20 20 19 19 18 19 19 19 19 19 21 21 21 22 22 22 22 22 22 22 23 25 26 27 28 28
13 13 15 18 17 16 17 15 16 16 17 19 17 16 13 9 9 13 21 23 25 27 18 14 15 15 19 20 18 20 20 21 22 21 21 21 21 23 25 30 34 34 32 30 28 27 26 25 24 21 19 19 19 20 21 18 16 16 18 20 21 21 21 20 18 18 19 18 18 19 20 20 20 21 21 21 22 22 22 22 22 23 25 26 27 27
12 14 18 19 13 12 15 16 16 16 17 18 16 17 15 10 9 13 22 26 28 29 20 17 18 16 20 19 15 18 20 21 22 23 24 22 22 24 24 28 33 34 34 32 28 26 26 24 23 22 20 19 20 22 21 17 15 18 20 21 23 24 23 21 19 19 19 18 17 18 20 20 20 20 21 21 22 22 22 22 22 23 24 25 26 26
12 18 21 18 14 13 14 14 16 17 18 18 17 17 17 15 16 18 23 26 24 21 17 17 18 16 18 19 14 13 18 23 23 22 23 22 23 24 23 24 28 32 33 31 29 25 25 24 23 22 22 20 20 21 19 15 16 19 22 24 24 25 25 24 22 19 19 18 18 18 20 21 21 21 21 21 22 22 23 23 23 23 23 24 25 26
16 23 22 16 14 15 15 15 17 18 19 19 18 19 19 21 23 23 23 23 19 15 15 19 19 16 15 14 12 13 18 23 23 20 20 21 23 24 24 23 25 28 30 31 30 25 24 25 23 22 21 21 22 21 18 17 20 22 24 26 26 26 27 27 25 22 20 19 19 19 19 20 21 21 22 22 22 22 23 23 23 22 23 24 24 25
19 24 21 15 15 15 15 17 17 19 20 21 21 21 22 23 24 26 26 26 23 19 21 24 23 21 18 14 13 14 16 20 21 21 19 18 20 23 23 24 26 28 30 31 30 28 28 26 24 23 23 24 23 19 18 22 24 25 26 28 28 28 28 29 28 25 21 21 21 20 19 19 21 21 22 22 22 23 23 23 22 22 22 23 24 24
22 24 23 17 16 16 16 16 17 19 19 21 24 23 24 23 23 25 26 26 26 25 26 25 24 25 24 20 18 17 19 22 24 24 22 17 17 19 21 24 27 26 26 27 28 32 33 29 26 25 25 24 20 17 20 26 27 28 29 29 30 29 30 30 30 28 24 23 24 23 21 20 21 22 22 22 22 23 23 22 22 22 22 23 23 23
19 23 23 17 16 16 16 14 13 16 18 21 24 23 22 22 20 22 23 23 24 26 26 22 21 24 23 21 18 17 21 24 23 24 24 20 18 21 24 25 24 22 25 28 30 33 32 29 28 28 28 27 24 23 26 29 29 31 31 31 32 31 31 32 32 31 27 26 28 27 25 23 22 22 21 21 21 21 22 22 22 22 22 23 23 23
15 21 21 17 17 16 17 17 15 18 19 20 22 20 20 21 20 22 24 23 24 26 25 20 21 24 24 21 16 18 23 23 21 22 24 24 25 28 28 26 24 25 28 29 31 31 28 27 30 31 32 31 30 30 30 30 31 33 33 33 34 34 33 33 34 33 30 29 30 30 27 23 21 21 20 20 20 20 20 20 21 21 22 22 23 22
17 20 20 19 19 18 20 21 20 21 19 19 20 19 18 19 21 23 25 24 25 25 23 20 20 22 25 22 16 19 23 22 21 22 24 28 30 29 26 24 26 28 28 28 30 31 29 30 33 34 34 34 32 30 30 31 33 35 35 35 36 36 35 34 34 35 33 31 31 30 26 21 18 18 18 18 19 19 19 19 19 20 20 21 22 21
19 16 15 16 17 19 21 20 20 21 20 20 20 20 20 21 23 24 24 24 24 23 20 19 19 19 22 21 16 19 23 23 22 21 25 28 27 25 24 25 28 29 29 30 31 32 32 32 33 34 35 36 35 32 31 32 34 36 37 38 39 38 37 36 35 36 35 32 30 27 24 19 16 15 16 17 18 19 19 19 19 19 19 20 20 20
14 11 11 12 12 16 18 19 16 13 17 20 19 20 22 22 23 23 21 21 20 19 18 17 19 18 20 18 14 17 23 25 24 24 28 30 27 27 27 29 30 28 28 30 31 32 33 33 33 34 35 36 37 36 34 33 34 37 39 41 42 40 38 37 37 38 36 32 28 25 22 19 16 15 16 17 18 19 19 19 19 19 19 19 20 19
11 9 9 6 6 11 13 15 14 9 11 15 17 20 20 20 22 20 19 18 15 17 18 17 18 18 18 18 16 18 21 22 22 23 26 28 29 29 29 30 29 26 27 28 29 30 31 32 33 34 35 36 38 38 36 35 36 38 39 40 42 42 39 38 39 40 37 31 25 23 21 18 17 15 16 18 19 19 19 19 19 19 19 20 20 20
13 9 7 8 11 12 9 10 14 12 10 9 13 17 18 18 19 19 19 18 17 19 20 18 17 16 16 17 20 22 21 21 23 24 24 25 27 27 28 29 29 27 27 28 27 28 29 30 31 32 34 36 37 37 37 37 38 38 38 38 40 40 38 38 39 39 35 29 24 22 21 19 17 16 16 18 19 18 19 19 19 19 19 19 19 19
14 9 6 9 15 15 11 11 12 12 12 12 12 12 15 18 18 18 18 19 20 22 21 20 19 19 18 19 23 25 23 25 27 25 25 28 28 29 29 29 29 28 28 28 29 29 29 29 29 29 30 32 33 34 35 36 36 36 35 36 37 36 35 36 38 36 30 26 24 22 22 20 18 16 17 19 19 19 19 19 19 19 19 18 18 18
18 14 11 10 9 9 13 15 13 12 13 14 11 8 10 15 16 16 16 16 19 20 19 19 19 20 20 20 25 26 23 26 27 24 26 27 27 27 28 26 26 26 27 28 29 29 30 30 29 28 28 29 30 31 32 32 31 32 31 32 33 34 34 34 34 32 28 25 24 23 23 21 19 18 18 20 21 21 21 21 21 21 20 19 18 17
21 19 19 16 8 5 10 14 13 13 14 14 14 11 10 11 13 15 16 17 18 19 18 18 18 19 18 19 23 24 22 22 23 24 24 24 24 24 24 24 24 24 25 26 27 28 29 30 29 28 27 27 28 29 30 30 30 29 28 29 30 31 33 32 30 28 27 27 25 24 24 22 20 20 20 21 22 23 23 23 22 22 21 19 18 17
25 23 23 20 14 10 11 13 13 13 13 13 16 17 15 16 16 15 16 18 18 18 18 18 17 17 16 19 21 24 25 23 23 25 23 24 25 21 19 22 23 24 25 26 27 28 29 29 29 29 28 27 28 30 31 31 31 29 27 28 30 30 32 33 31 29 28 28 27 25 25 23 22 22 22 22 24 24 24 23 22 22 22 20 19 18
26 25 23 20 18 16 16 16 15 14 11 11 13 15 15 16 18 18 20 20 19 19 19 20 20 18 17 19 20 22 24 23 22 22 22 26 27 20 19 23 24 25 26 27 28 28 28 28 29 30 29 28 28 30 32 33 33 31 29 29 30 31 33 35 36 34 30 28 27 27 26 25 25 25 23 24 25 25 24 23 23 23 23 22 21 20
27 26 24 21 20 20 19 18 17 17 16 14 15 16 15 15 17 20 20 18 18 21 20 20 21 20 21 23 22 21 23 23 22 21 25 32 29 20 21 25 25 26 26 26 26 26 26 27 29 30 31 30 29 30 32 34 34 34 33 33 33 34 34 34 35 36 35 32 29 29 28 28 28 28 25 25 27 27 25 24 25 25 24 22 22 21
29 26 25 23 23 24 23 19 18 20 20 18 17 19 19 19 20 22 21 19 20 23 23 22 22 22 24 26 25 24 25 26 26 24 28 33 28 21 25 29 27 27 26 25 25 26 25 26 27 30 31 31 31 30 31 34 35 35 35 36 36 36 37 37 37 37 38 36 32 30 30 31 31 31 29 28 29 30 28 26 27 27 25 23 23 23
30 26 26 26 26 27 27 24 23 25 26 25 24 25 25 25 25 26 26 25 27 28 26 26 27 26 27 28 26 27 27 28 28 26 29 34 33 30 32 32 30 29 28 28 29 29 29 29 29 30 32 32 32 32 32 33 35 36 36 36 35 34 35 37 39 40 40 38 34 32 33 35 36 35 33 32 33 32 30 28 28 27 26 27 27 26
30 29 30 30 30 29 29 27 23 21 22 21 22 27 31 30 30 30 30 32 34 33 30 30 30 30 30 30 29 28 29 28 28 29 33 37 37 35 35 34 32 31 31 31 31 32 32 32 31 32 33 34 34 34 34 34 35 36 37 37 36 34 33 33 35 37 39 41 39 36 36 37 39 39 37 35 35 34 32 30 29 29 30 30 30 30
31 32 33 33 32 31 30 28 22 19 22 23 24 29 32 30 29 31 33 35 35 34 32 32 32 30 31 32 32 31 31 30 29 31 35 38 38 38 38 37 35 34 33 33 33 33 34 34 34 34 35 37 37 37 36 36 36 37 38 39 39 38 36 34 34 34 37 41 42 42 41 40 41 43 42 39 37 35 33 32 32 32 32 32 32 33
35 35 35 34 35 34 33 32 29 28 31 31 31 33 33 30 29 30 32 33 33 33 33 33 33 33 32 34 35 33 33 33 33 34 37 39 40 40 38 37 37 37 37 37 37 37 37 37 37 37 38 39 40 41 41 40 39 39 40 40 41 41 40 39 37 37 38 40 42 43 43 43 42 42 43 43 41 39 36 36 37 36 35 35 35 35
37 37 36 36 36 36 36 36 35 34 35 36 35 36 37 37 38 37 36 36 37 37 36 34 35 37 35 36 38 37 37 37 35 34 36 37 39 41 40 37 38 39 38 38 39 41 40 39 39 40 41 42 43 44 44 44 44 43 43 43 43 44 44 43 42 42 42 41 42 43 44 45 43 40 38 39 39 39 38 38 39 39 37 38 37 35
38 38 38 38 38 38 38 38 37 38 39 39 39 40 40 42 44 43 42 42 42 42 42 40 38 37 37 39 41 40 41 41 38 36 37 37 39 43 43 40 39 39 39 39 39 40 40 39 39 40 42 44 46 46 47 48 48 48 47 46 46 46 46 47 47 46 46 45 45 46 46 47 46 44 41 39 39 39 40 39 39 39 38 38 39 38
40 39 40 41 41 41 41 41 41 42 43 42 42 42 44 45 46 46 45 45 45 44 44 44 42 40 40 43 45 43 43 43 42 42 41 40 40 42 43 41 39 38 38 39 39 39 39 39 40 41 42 42 43 44 46 48 48 49 50 50 50 49 49 49 49 49 49 49 49 49 49 49 49 48 46 45 45 45 45 44 44 43 42 41 40 41
42 41 42 43 43 43 43 43 44 45 46 46 44 45 47 48 48 49 48 47 46 44 44 46 46 44 45 48 48 47 46 45 44 44 44 43 42 43 43 42 40 39 37 38 40 43 43 42 42 43 43 42 41 41 43 47 46 45 48 50 51 52 52 52 52 52 52 52 53 53 53 53 53 51 50 49 48 48 49 49 48 48 49 48 46 44
41 41 42 42 43 45 44 43 44 45 46 47 47 47 48 49 49 49 48 48 47 46 47 48 47 46 47 49 49 47 48 49 48 47 47 46 44 42 41 40 40 40 40 39 42 45 45 43 42 42 41 41 40 38 38 42 43 42 44 47 49 50 51 52 53 53 54 54 55 55 56 55 55 54 54 52 51 50 50 50 49 50 50 51 50 49
39 40 39 38 41 43 42 41 43 44 46 47 46 45 45 46 46 46 46 46 45 44 45 46 47 48 49 49 47 46 48 50 50 50 51 50 48 46 43 42 42 42 40 40 42 44 44 46 47 44 42 42 42 40 39 41 43 44 43 45 46 47 48 49 50 51 52 53 54 55 55 55 55 56 55 54 53 52 51 51 50 50 51 52 52 52
43 43 43 42 43 43 41 41 42 44 46 45 42 42 44 45 45 44 44 45 45 45 45 45 47 49 49 47 46 46 47 50 51 51 51 51 52 50 48 47 49 48 44 44 46 46 47 52 51 44 41 44 45 45 46 46 47 46 45 45 46 46 47 48 49 49 49 50 51 52 53 53 54 55 55 55 54 53 54 53 52 51 51 52 53 54
46 48 47 47 47 46 44 44 45 47 48 46 42 43 46 46 45 45 45 45 46 46 46 45 47 49 47 46 46 47 48 50 51 51 50 51 51 50 49 47 47 48 46 45 47 48 49 53 52 46 44 46 47 46 48 50 49 48 48 48 46 46 47 48 49 49 49 49 50 50 51 51 52 53 54 54 54 54 55 55 54 53 53 54 54 55
47 47 47 47 47 46 45 45 48 49 48 47 46 48 50 49 47 46 44 43 44 44 43 44 46 47 46 46 46 48 50 51 52 52 50 49 48 48 49 48 47 48 47 46 47 50 51 53 54 52 51 51 50 50 51 52 52 51 51 51 49 47 48 48 49 49 50 50 50 50 50 50 50 51 52 53 54 55 55 56 56 56 57 57 57 57
46 47 48 48 47 47 47 47 49 49 48 49 49 49 50 50 49 47 43 41 42 42 43 45 47 47 47 47 47 50 52 51 51 53 52 49 47 48 51 52 52 52 52 52 53 54 54 54 56 57 56 55 55 54 54 55 55 54 54 53 51 49 48 48 48 49 50 49 50 50 50 50 50 51 52 52 53 54 54 55 56 57 57 58 58 58
44 46 47 47 47 46 47 47 47 47 47 47 46 45 45 46 46 46 43 40 41 42 43 46 47 47 47 47 47 49 51 50 49 50 50 47 47 50 52 53 54 55 56 56 56 55 53 55 58 61 60 58 56 54 55 56 56 55 53 52 50 49 48 48 48 49 49 49 50 50 50 50 51 51 52 52 53 53 54 54 55 55 56 56 57 57
43 44 44 44 45 44 43 43 43 43 43 42 41 42 43 42 42 43 43 43 44 44 45 46 48 48 48 48 48 48 49 50 49 49 47 45 47 50 51 52 53 54 54 54 53 54 56 58 61 62 61 59 55 54 56 57 56 55 53 51 50 49 49 49 49 49 50 50 50 51 51 51 51 52 52 53 53 54 54 54 55 55 55 56 56 56
43 43 43 43 43 41 41 41 41 41 42 42 41 42 44 44 43 43 44 45 46 46 47 48 49 50 50 49 48 48 48 50 51 51 49 47 48 50 51 52 52 52 52 53 53 56 59 60 61 61 60 57 55 54 56 57 56 54 53 51 50 49 49 49 49 50 50 50 50 50 51 52 52 53 53 53 54 54 55 55 55 55 55 55 56 56
40 40 40 40 40 40 40 40 40 40 42 42 42 44 46 47 47 46 47 48 47 47 48 50 51 52 52 51 49 48 50 51 52 51 51 50 50 51 52 53 53 52 52 53 54 57 59 59 59 58 57 56 54 53 53 54 53 52 51 50 49 48 48 48 49 49 49 50 49 49 50 51 52 53 53 54 54 54 54 54 54 55 55 55 55 55
36 37 37 38 39 39 40 40 40 41 42 42 43 45 46 46 46 48 49 48 47 46 48 50 51 52 53 53 52 50 51 52 52 51 51 51 51 51 51 52 54 54 54 53 53 54 55 56 57 57 57 57 56 54 53 52 52 51 50 49 48 48 48 48 48 48 49 49 49 49 50 51 51 52 52 53 54 54 54 53 53 54 54 54 54 54
37 38 39 39 38 38 38 39 39 40 41 43 44 45 46 46 47 49 49 47 47 47 48 48 50 52 53 54 54 53 52 52 52 52 51 51 51 51 52 53 54 56 56 55 54 53 54 56 57 58 58 58 57 56 54 53 53 52 52 51 50 49 49 48 48 49 48 48 48 48 49 50 51 51 51 51 52 52 52 52 52 52 53 53 54 53
39 39 40 39 37 36 35 36 37 39 41 42 43 44 46 47 48 48 48 47 48 48 49 49 51 53 55 55 55 55 53 52 52 52 51 51 51 51 52 53 54 55 55 55 55 55 54 55 56 57 58 59 58 57 56 55 55 54 53 52 51 50 50 49 49 49 48 48 48 48 48 48 49 49 49 50 50 50 50 50 50 51 51 52 53 52
38 38 39 39 38 37 36 36 38 39 40 42 44 46 46 47 47 47 47 47 48 49 49 51 51 52 53 54 53 53 53 53 52 52 51 51 51 51 52 52 54 55 55 55 54 55 54 54 55 56 57 58 58 58 57 56 55 55 53 52 52 51 51 50 50 50 49 48 47 47 47 47 48 48 48 48 48 49 49 49 48 49 49 50 51 51
37 36 36 36 36 36 37 37 38 39 40 42 46 47 46 46 46 47 47 48 49 49 49 49 49 49 50 51 51 51 52 53 53 52 52 51 51 50 50 51 51 52 54 54 54 55 55 55 55 56 57 58 58 58 58 57 55 54 54 53 52 51 51 51 51 50 50 49 48 47 47 47 47 47 47 47 47 47 47 47 47 47 47 48 49 49
35 33 32 33 34 35 36 37 38 39 40 42 44 45 46 47 47 47 47 47 47 48 48 48 48 48 48 49 50 50 51 52 53 53 52 52 51 50 50 51 51 52 53 54 54 55 57 57 56 57 57 57 57 58 58 57 55 54 54 53 53 52 52 52 52 51 51 50 48 48 47 47 46 46 45 45 45 46 46 45 44 45 45 46 46 46
32 32 32 33 34 34 35 36 37 38 38 40 41 43 45 46 46 46 47 47 48 48 49 49 49 49 49 49 50 50 50 51 52 53 53 53 53 52 51 51 51 52 53 54 55 56 57 58 58 58 58 57 58 58 58 56 55 55 55 54 53 53 53 53 52 51 51 50 48 47 47 46 45 44 44 44 44 45 44 43 42 43 44 43 44 44
30 31 32 33 34 34 35 36 37 38 39 40 42 44 45 46 46 47 48 49 49 50 50 50 50 50 50 50 51 51 51 51 52 53 53 53 54 54 53 53 53 53 53 54 55 56 57 58 58 58 58 58 58 59 59 57 56 57 57 55 55 55 55 54 53 52 50 48 48 47 47 46 45 44 45 45 45 44 44 43 42 43 42 42 42 43
30 32 33 33 34 36 37 38 39 39 40 41 42 43 45 45 46 47 47 47 48 49 49 49 49 49 49 50 51 52 52 52 52 53 53 53 54 55 55 55 55 55 54 55 56 56 56 56 57 58 58 58 58 60 61 59 58 58 58 57 56 56 55 54 53 52 50 47 47 46 46 47 46 45 46 47 46 44 44 43 43 42 42 43 43 43
31 31 32 32 34 36 37 38 40 40 40 40 41 41 42 43 43 44 44 44 44 44 45 45 45 45 45 45 46 47 48 48 49 50 51 51 52 53 54 55 56 56 56 57 57 57 56 57 57 58 58 58 59 60 60 59 58 58 57 57 56 56 55 54 53 52 50 48 47 46 47 47 47 47 47 46 45 43 43 43 43 43 43 43 43 42
Wind_Direction
247 247 246 240 237 232 222 222 234 238 213 194 189 209 222 230 211 207 236 249 255 260 240 211 191 212 228 227 241 256 258 257 249 245 245 251 261 268 274 274 271 271 272 273 274 275 276 276 279 277 277 279 277 274 270 268 271 281 286 285 285 283 280 280 279 279 280 282 286 285 282 280 279 279 278 275 272 269 268 266 265 265 264 263 264 267
248 248 250 248 245 246 241 234 232 221 207 205 214 221 209 199 207 223 239 258 264 256 255 241 195 218 239 217 222 245 244 249 252 253 251 250 255 262 269 271 269 269 270 272 272 273 273 275 277 273 273 276 271 267 267 268 275 283 285 285 285 285 283 282 281 281 281 282 285 285 283 282 281 281 281 280 277 273 269 266 264 263 262 262 263 266
250 246 248 253 250 245 243 236 228 222 215 217 231 235 209 189 196 221 231 241 259 260 259 233 189 202 241 222 221 237 239 252 260 262 259 260 256 253 260 265 266 267 267 268 271 274 274 276 277 271 273 277 265 263 271 274 281 286 287 288 288 289 288 285 285 285 284 285 286 286 284 280 279 280 281 281 280 278 274 269 266 263 262 262 263 265
250 244 244 253 254 246 242 241 236 231 228 227 234 233 211 191 199 228 245 239 246 258 255 233 215 211 226 227 230 237 242 256 268 270 263 264 263 254 255 261 263 264 264 265 269 272 272 273 275 271 271 272 263 268 274 274 283 291 291 292 292 292 290 288 289 288 289 290 289 290 288 283 280 278 279 280 280 280 277 274 270 267 265 265 266 268
247 248 250 252 251 249 244 243 242 236 235 234 234 231 213 197 203 230 257 251 242 254 261 259 260 248 238 245 248 240 246 260 269 268 263 262 263 257 254 259 263 263 263 265 265 267 269 272 273 272 272 268 269 275 271 270 286 292 293 295 294 294 293 291 291 292 293 293 292 292 290 287 283 279 279 279 279 280 279 277 275 273 272 271 271 272
240 247 254 256 249 252 252 245 244 240 238 237 237 238 225 217 218 218 242 254 247 250 260 259 259 257 257 263 262 247 251 262 262 260 261 259 257 259 257 258 263 263 262 265 267 266 269 274 273 274 274 266 271 275 264 270 292 294 293 295 294 294 294 293 294 297 297 295 293 292 290 289 286 283 282 281 280 280 280 280 279 277 276 276 275 275
232 247 256 263 255 252 253 247 245 244 242 241 239 240 234 230 231 225 233 251 257 255 257 260 256 249 252 254 259 263 258 258 257 255 261 258 252 256 256 256 262 265 264 263 266 266 267 273 274 274 272 264 269 269 258 274 293 292 291 291 291 293 294 295 297 301 301 300 298 295 292 292 289 287 285 283 282 280 280 280 281 280 279 278 277 276
239 250 258 264 258 250 247 246 246 245 241 240 240 241 240 235 235 238 244 253 262 265 260 263 262 255 252 241 238 245 239 246 258 259 262 261 255 255 255 256 257 259 263 263 265 266 265 268 272 273 269 262 263 259 261 281 289 288 289 289 290 292 293 295 297 300 302 302 302 299 296 295 292 290 287 285 282 280 279 279 279 279 279 278 277 277
246 250 259 261 255 249 245 246 248 247 243 239 239 241 243 242 237 240 249 255 259 262 258 259 261 260 260 254 243 237 233 244 259 262 263 259 252 253 254 253 253 257 263 268 270 269 269 270 271 273 268 261 261 263 276 287 286 286 287 287 289 291 291 294 295 298 300 300 301 298 296 297 295 291 289 286 282 279 278 278 277 277 276 276 276 275
252 252 259 260 251 246 241 241 245 246 243 241 242 244 247 248 246 244 248 252 253 255 255 254 255 259 261 258 251 246 248 252 254 257 262 255 243 246 252 254 259 264 265 268 269 269 273 277 276 277 275 271 275 279 286 288 285 285 285 285 287 287 288 291 292 295 297 298 299 296 295 295 295 291 288 285 282 281 280 278 277 277 276 276 275 274
254 254 256 255 253 250 240 235 241 245 244 247 248 247 246 247 249 249 249 251 251 253 257 256 257 259 260 257 246 242 251 253 248 250 255 254 250 252 257 260 260 261 265 269 269 269 271 273 274 275 275 275 277 280 283 283 281 281 281 282 283 283 285 287 289 292 294 296 296 295 293 293 293 291 287 285 283 281 280 278 277 276 276 276 275 275
250 261 262 255 251 251 246 243 246 249 250 252 252 245 241 243 245 248 251 252 252 255 260 258 255 255 256 254 237 232 244 252 253 249 247 249 252 258 265 265 259 259 266 269 270 270 270 269 270 271 272 273 274 275 275 274 274 275 277 278 278 279 281 283 286 288 290 294 293 291 290 289 290 290 289 287 283 280 278 275 274 273 273 274 274 273
245 255 261 255 249 245 245 244 244 250 255 253 251 246 241 241 244 247 250 252 253 255 257 255 249 244 251 255 245 237 242 248 251 248 250 254 258 266 271 266 262 265 268 268 269 270 270 269 269 270 271 272 271 268 265 265 267 270 273 274 273 275 277 278 281 283 286 291 289 285 284 282 282 288 291 289 283 278 275 273 271 271 270 270 270 270
244 243 252 258 257 246 239 236 236 247 256 248 242 243 241 240 245 249 250 252 255 256 253 251 247 243 247 251 246 243 244 246 248 250 258 266 270 272 269 266 267 270 270 270 269 268 268 268 268 267 266 267 267 265 262 262 263 266 269 269 268 269 273 276 277 279 283 286 282 277 277 273 272 281 288 286 282 278 274 272 270 270 270 269 269 268
238 241 255 254 248 246 233 225 223 225 250 249 238 239 240 240 244 247 248 249 254 257 251 246 250 253 253 248 240 244 250 253 257 260 266 271 272 270 268 269 272 272 270 269 267 266 266 266 266 265 263 262 263 264 263 262 261 263 267 268 268 266 268 273 274 275 280 279 273 270 271 269 268 274 283 283 280 277 274 273 272 271 270 269 269 268
234 228 240 218 218 235 226 218 229 228 233 240 231 233 240 244 245 245 246 244 244 250 250 247 250 254 255 251 247 253 261 264 265 267 268 269 269 269 270 271 272 270 269 267 266 266 264 263 263 263 261 261 261 263 262 260 259 261 264 266 267 264 264 269 271 272 275 271 266 268 269 267 267 269 276 279 278 276 274 274 273 272 271 270 270 270
228 206 211 227 233 241 228 219 235 231 217 223 235 238 240 242 242 245 249 250 250 252 255 257 259 259 262 263 261 263 268 269 270 270 267 265 266 267 268 270 271 270 267 266 266 265 264 263 262 260 259 259 259 260 260 259 260 261 261 263 264 263 264 265 265 267 270 266 264 267 266 264 265 266 269 271 271 271 271 272 272 271 271 271 271 271
225 197 201 233 248 252 239 229 234 236 226 230 242 248 251 249 244 243 248 254 257 256 255 258 261 262 262 263 267 269 267 267 271 271 268 267 267 267 267 269 271 271 270 269 267 266 266 265 263 261 259 257 257 257 258 258 258 259 260 260 261 261 259 256 256 259 261 262 264 264 264 262 262 263 265 266 267 268 269 271 271 270 269 268 269 270
233 214 220 238 247 259 251 232 225 235 238 238 238 235 250 261 248 245 251 255 259 261 260 260 262 263 262 262 268 270 266 266 272 273 271 270 268 267 267 268 270 272 273 271 269 267 267 267 265 262 258 256 255 255 255 253 252 253 254 253 256 258 254 250 251 253 255 259 261 259 259 259 259 262 263 264 266 267 269 270 269 268 267 266 267 270
237 228 230 239 238 237 241 230 227 238 243 246 247 242 246 256 254 252 256 258 260 263 265 264 262 262 262 261 262 265 268 270 270 269 268 268 270 272 271 271 273 274 273 272 271 268 266 265 266 264 260 255 252 252 252 249 247 247 246 246 249 253 253 252 253 250 247 251 254 254 255 257 259 261 261 262 262 262 265 265 264 265 266 267 268 269
239 236 235 238 237 237 238 241 248 251 243 241 247 249 254 261 261 257 253 255 260 263 264 265 264 262 257 257 257 260 264 263 259 258 259 266 273 274 273 275 276 275 274 273 271 268 264 263 264 264 261 256 251 249 249 248 246 244 243 244 245 247 250 254 258 255 249 248 249 249 252 255 257 258 259 261 260 259 263 264 262 262 262 264 266 266
240 240 239 240 245 250 252 255 258 254 244 237 242 251 252 248 253 257 253 251 254 255 256 258 262 263 260 261 262 262 262 261 264 263 257 265 273 272 272 276 275 273 274 273 270 267 265 265 265 265 264 260 255 250 247 247 248 247 245 243 243 244 245 250 256 257 255 253 250 248 251 253 254 256 258 258 257 258 261 262 261 260 259 259 259 260
243 243 245 246 247 252 255 255 260 263 259 255 256 262 259 252 254 259 257 254 254 256 257 258 260 262 262 262 262 264 266 269 274 264 248 257 270 275 278 279 275 273 274 272 269 265 263 265 266 266 265 262 259 254 249 248 249 250 249 247 245 245 247 248 249 251 253 252 249 249 252 252 252 253 253 252 253 256 259 260 260 260 259 258 256 254
247 247 249 250 250 252 256 258 261 270 274 272 267 263 261 262 262 262 262 264 264 263 263 263 263 264 265 266 266 267 268 271 274 265 253 262 273 278 279 277 271 271 271 270 269 266 264 265 265 264 262 261 259 257 254 251 250 252 254 255 255 252 252 253 252 251 252 251 251 254 256 255 254 254 253 251 252 257 260 260 261 261 260 260 258 256
252 252 250 251 253 253 257 261 263 268 272 272 266 260 257 258 259 260 262 263 264 265 265 265 268 269 269 269 270 270 270 271 273 270 269 273 275 275 277 274 269 268 268 267 267 265 264 265 265 263 260 258 257 256 255 254 254 254 256 260 262 261 257 256 255 254 253 251 254 260 262 262 260 259 257 255 256 259 260 259 261 262 263 263 262 260
253 254 251 252 254 253 254 257 254 248 248 250 256 260 260 259 258 258 258 260 264 267 265 265 267 269 269 268 268 268 268 268 267 267 270 273 273 273 274 273 269 267 266 266 265 263 264 265 266 264 260 257 255 253 253 252 252 254 255 258 262 263 261 257 254 254 254 254 254 257 261 263 264 262 258 257 258 258 258 260 262 264 266 268 267 264
255 255 254 254 255 254 254 254 251 249 250 254 260 265 267 268 265 261 260 262 266 267 264 262 264 264 265 267 267 267 267 268 266 265 267 270 272 271 271 271 268 267 267 267 265 264 265 266 267 266 262 258 255 253 252 250 250 250 251 253 256 260 261 260 257 254 254 255 255 256 258 261 266 265 259 258 260 258 257 261 264 264 264 268 271 268
257 257 256 256 256 256 256 256 256 256 258 261 263 264 266 267 266 265 266 265 267 266 262 261 263 262 261 262 264 265 267 268 268 269 268 268 269 269 268 269 270 270 270 268 265 264 264 266 268 266 264 262 259 256 253 250 250 250 250 251 252 254 257 259 260 258 257 256 256 258 260 263 266 266 261 259 261 258 257 261 265 266 262 262 268 269
258 260 260 259 258 258 257 258 257 257 258 259 261 263 264 266 267 268 267 265 265 265 262 261 261 260 259 259 261 262 263 264 265 266 265 266 269 270 270 270 271 270 268 266 266 264 263 265 267 265 265 264 262 260 256 252 251 250 250 251 251 252 253 255 257 259 260 260 259 260 263 265 266 266 263 262 261 260 262 264 267 267 263 260 262 262
259 260 262 262 260 259 259 260 259 259 259 259 260 262 264 265 266 267 266 265 264 263 263 262 260 257 256 257 257 258 260 261 261 262 263 265 267 267 268 269 269 268 265 262 263 263 263 266 267 264 263 263 263 263 258 253 252 252 252 252 252 252 253 253 255 256 258 260 261 262 263 265 266 266 265 263 262 262 264 266 265 265 264 263 261 260
261 262 261 261 261 261 260 261 261 262 262 261 260 261 262 262 263 264 265 266 265 264 264 263 261 259 259 259 258 258 258 258 258 259 262 263 263 264 265 264 263 264 264 263 264 264 264 266 266 263 261 261 263 264 258 253 253 254 254 255 255 254 254 254 255 255 256 258 260 262 263 264 266 267 267 266 265 264 264 265 265 265 264 265 265 265
262 263 264 263 263 262 261 261 261 260 260 261 261 260 260 262 263 264 265 266 266 266 266 265 264 262 261 260 259 257 256 255 254 253 256 257 258 260 262 261 259 259 262 265 265 264 264 264 262 260 259 258 259 260 256 252 253 257 258 257 256 256 256 257 256 256 257 257 258 260 261 263 264 266 267 268 268 268 267 267 266 266 267 268 269 270
261 262 263 263 261 262 262 261 261 261 261 262 264 263 263 263 264 265 265 266 266 267 266 266 265 263 261 260 260 257 255 254 252 252 253 254 255 255 258 261 261 260 261 263 262 262 264 264 261 260 259 258 256 255 253 253 257 260 260 258 257 257 257 258 258 258 258 258 258 258 259 261 262 263 264 266 267 268 269 268 267 266 266 267 268 269
262 262 262 260 260 261 262 262 262 263 264 266 268 268 266 264 264 264 264 265 266 266 265 265 264 264 263 263 262 260 257 256 254 252 252 253 254 254 256 259 261 261 261 262 261 261 262 263 263 261 260 260 258 256 255 257 260 260 259 259 260 259 258 258 258 258 258 258 258 258 258 259 259 260 261 262 263 265 266 268 269 269 267 267 266 267
262 261 261 262 263 263 264 264 265 266 268 270 272 270 267 265 265 266 266 267 267 266 265 264 264 264 264 263 262 261 260 258 257 255 253 252 254 254 255 256 257 258 259 260 259 259 259 261 262 261 259 260 259 258 258 260 262 261 260 263 263 260 257 257 257 258 258 259 259 259 259 259 259 259 260 260 261 262 263 264 266 267 268 267 267 267
261 262 262 262 263 264 264 265 267 269 271 272 271 270 270 270 270 269 269 268 267 266 265 263 263 263 263 261 260 261 261 261 261 260 258 256 256 255 255 255 256 255 255 255 256 257 258 261 263 263 261 260 260 259 260 262 263 263 263 265 265 262 259 257 257 257 257 257 258 258 259 260 260 260 260 260 260 261 261 262 262 263 264 265 266 267
262 263 263 263 263 265 266 267 268 270 271 271 270 271 273 275 274 272 270 268 266 265 263 262 262 262 263 263 263 263 263 264 265 265 263 261 258 256 254 254 254 252 252 254 256 258 260 261 262 263 262 260 260 260 261 263 264 264 264 265 266 264 261 259 258 258 257 257 258 258 259 259 259 260 260 260 260 261 261 261 262 263 264 265 266 266
261 262 263 266 267 268 268 268 269 270 270 271 272 272 272 273 274 273 271 268 266 264 263 264 265 265 265 265 265 265 267 268 267 265 266 264 260 256 255 255 254 254 255 256 258 258 257 257 259 262 263 262 262 262 262 263 264 264 264 264 264 263 262 261 260 260 259 259 259 259 259 259 259 260 261 261 261 262 262 262 262 263 263 264 265 265
260 263 265 267 268 269 271 271 270 270 270 270 271 271 271 271 272 273 273 271 269 268 268 268 268 268 268 268 267 267 268 268 266 265 265 264 261 259 258 256 254 254 255 255 255 255 254 255 258 262 263 263 261 261 262 262 262 263 263 263 263 262 262 261 261 261 260 260 259 259 259 259 259 260 261 262 263 263 264 264 264 264 265 265 265 266
262 264 265 266 267 269 269 269 271 272 271 271 271 271 271 271 272 272 272 271 271 271 270 270 270 270 270 269 268 268 267 266 267 267 266 264 262 262 262 260 257 256 254 252 252 253 253 256 260 262 264 263 262 261 261 261 261 262 263 262 262 262 262 262 261 261 261 261 261 261 260 260 260 260 260 261 262 263 264 265 266 266 266 266 266 266
266 265 265 266 267 268 270 271 271 271 271 272 272 271 272 273 273 271 269 269 270 271 270 269 269 269 269 268 267 266 266 267 267 268 267 265 263 263 264 264 263 261 257 253 252 254 256 259 261 262 263 262 261 260 259 260 260 261 262 262 261 261 261 261 261 261 262 262 262 262 262 262 261 261 261 261 262 262 263 264 266 266 266 267 267 266
265 267 267 267 268 270 272 273 272 271 271 271 271 271 272 272 271 270 270 270 269 268 267 268 268 268 268 268 267 266 265 265 267 267 267 267 266 266 265 265 264 263 261 258 255 255 256 257 259 260 260 260 259 259 259 260 260 261 261 260 260 260 260 260 260 261 261 262 262 262 262 262 262 262 262 262 263 263 263 264 265 266 266 267 267 267
261 265 269 271 273 273 273 271 270 269 268 268 268 269 270 269 268 269 270 270 268 267 266 266 266 267 268 268 268 267 266 265 266 266 266 266 267 267 266 265 265 265 264 262 260 258 255 255 256 258 259 259 260 260 260 260 260 260 260 260 260 260 260 261 261 261 262 262 262 262 262 262 263 263 263 264 264 265 264 265 265 266 267 267 267 268
262 265 267 268 269 270 269 267 266 266 267 267 267 267 267 268 268 268 269 268 268 268 267 266 266 267 268 268 269 270 269 268 267 266 265 264 264 264 264 264 264 264 264 264 263 262 260 258 257 258 259 260 260 260 259 259 260 260 261 262 262 262 262 262 262 262 263 263 262 262 262 262 263 263 263 264 265 265 266 266 266 267 267 268 268 268
261 263 265 267 267 267 265 263 264 266 269 269 268 268 268 269 270 270 270 269 268 268 268 268 268 269 271 271 272 272 271 270 268 266 265 263 263 262 262 262 262 263 264 263 263 263 262 260 259 258 258 259 260 260 259 259 260 261 262 263 263 263 263 264 264 264 264 264 263 263 262 262 262 262 263 264 264 265 266 266 266 266 267 268 269 269
263 265 267 269 268 267 266 265 265 265 266 267 268 270 272 273 272 272 272 272 272 272 273 273 273 273 273 273 273 272 272 271 270 269 268 266 264 263 263 263 262 262 263 263 263 262 261 260 259 258 258 258 259 260 260 260 260 261 262 262 262 263 264 264 264 265 265 265 264 263 263 262 262 262 263 264 264 264 264 264 264 265 266 268 269 269
272 272 271 270 269 268 268 267 267 267 267 267 270 272 273 273 274 275 277 277 277 277 276 275 274 273 272 272 272 272 272 273 273 272 271 270 268 266 264 263 262 262 262 262 262 262 261 261 260 259 258 258 259 259 260 261 261 261 261 262 262 263 263 263 264 264 265 264 264 264 263 263 263 263 263 263 263 263 263 263 264 265 266 266 268 269
275 276 274 272 272 271 271 270 270 270 270 270 271 271 271 273 275 277 277 277 276 275 274 275 275 275 274 274 273 272 272 272 272 272 272 272 271 269 267 265 263 262 261 261 261 260 261 261 261 261 260 260 260 260 260 260 261 261 261 261 261 261 261 262 262 262 263 264 264 264 263 263 263 263 263 262 262 262 263 264 265 266 267 268 269 269
275 275 274 275 276 277 277 276 275 274 273 273 272 271 272 273 274 274 274 274 274 275 275 276 276 276 276 275 275 274 273 272 272 271 271 271 271 271 270 268 267 265 264 263 262 261 261 261 261 261 262 262 262 262 262 261 261 261 261 261 261 261 261 262 262 261 261 262 263 264 264 264 263 262 263 263 262 263 265 266 267 267 268 269 269 268
273 274 277 280 281 281 281 280 279 279 277 276 275 275 275 275 275 275 275 275 276 276 277 277 277 277 276 276 275 275 274 273 273 272 272 271 271 270 270 269 268 267 266 265 264 263 262 262 261 261 261 260 260 260 261 261 261 261 261 262 262 262 263 263 263 263 262 260 261 262 263 263 263 262 262 262 263 264 265 267 267 268 269 269 268 269
277 280 283 283 282 281 281 282 282 282 280 279 278 278 278 278 278 278 278 278 278 278 278 278 278 278 277 277 276 276 275 275 274 273 273 272 271 271 270 269 268 267 266 265 265 264 263 262 261 260 260 259 258 259 260 261 261 261 262 262 262 262 262 262 262 263 262 261 261 261 261 262 263 262 262 263 263 265 267 268 268 268 268 269 269 269
Height
5739 5739 5740 5740 5741 5742 5743 5743 5744 5745 5746 5748 5749 5752 5754 5755 5757 5759 5757 5753 5752 5754 5756 5756 5759 5762 5762 5761 5761 5759 5756 5756 5757 5758 5757 5756 5754 5752 5751 5753 5756 5757 5758 5760 5761 5762 5762 5762 5762 5762 5763 5763 5764 5765 5766 5766 5765 5764 5764 5764 5765 5767 5768 5768 5768 5768 5769 5769 5769 5768 5769 5769 5769 5770 5769 5770 5770 5771 5771 5771 5772 5772 5773 5774 5774 5775
5738 5738 5739 5739 5740 5741 5742 5742 5744 5744 5745 5746 5747 5748 5750 5752 5756 5758 5754 5751 5750 5752 5754 5755 5756 5760 5760 5760 5760 5759 5756 5753 5754 5756 5757 5757 5756 5754 5751 5750 5752 5754 5756 5757 5759 5760 5760 5760 5761 5761 5761 5761 5762 5763 5764 5763 5762 5761 5761 5762 5763 5764 5765 5766 5766 5766 5767 5768 5768 5767 5766 5767 5767 5767 5767 5767 5768 5769 5769 5769 5770 5770 5771 5772 5772 5773
5737 5737 5737 5737 5738 5740 5740 5741 5742 5743 5744 5745 5745 5746 5748 5749 5754 5755 5751 5750 5748 5748 5752 5752 5753 5757 5758 5758 5758 5756 5754 5752 5752 5754 5756 5756 5757 5757 5753 5751 5750 5751 5753 5755 5757 5758 5758 5758 5759 5759 5759 5758 5759 5761 5761 5761 5758 5758 5758 5759 5760 5761 5762 5763 5763 5764 5765 5765 5766 5765 5765 5765 5765 5765 5765 5765 5766 5766 5766 5767 5768 5768 5769 5770 5770 5771
5735 5735 5735 5735 5737 5738 5739 5740 5740 5741 5742 5743 5743 5745 5746 5747 5752 5753 5750 5749 5748 5746 5748 5749 5750 5752 5753 5754 5753 5752 5752 5751 5751 5752 5753 5754 5755 5755 5754 5750 5749 5750 5751 5753 5755 5756 5756 5757 5756 5756 5756 5756 5757 5758 5758 5757 5755 5755 5755 5756 5757 5758 5759 5760 5761 5762 5762 5763 5763 5763 5762 5762 5763 5763 5763 5763 5763 5764 5764 5765 5765 5766 5767 5767 5768 5769
5733 5733 5732 5734 5736 5736 5737 5738 5739 5740 5740 5741 5742 5743 5744 5745 5750 5752 5747 5745 5746 5745 5746 5748 5747 5748 5749 5749 5750 5751 5750 5749 5749 5749 5749 5751 5752 5753 5753 5750 5748 5748 5749 5750 5753 5754 5753 5754 5754 5753 5754 5754 5755 5756 5754 5751 5750 5751 5752 5754 5755 5756 5757 5757 5759 5759 5760 5760 5761 5760 5760 5760 5760 5760 5761 5761 5761 5762 5762 5762 5763 5764 5764 5765 5765 5766
5732 5730 5730 5732 5734 5734 5735 5736 5737 5737 5738 5739 5740 5741 5741 5742 5745 5747 5743 5741 5743 5745 5745 5745 5745 5746 5746 5747 5748 5750 5747 5746 5747 5747 5746 5749 5749 5750 5751 5750 5746 5746 5746 5747 5748 5750 5751 5752 5753 5752 5751 5752 5753 5754 5753 5748 5746 5748 5750 5752 5753 5754 5754 5755 5756 5757 5757 5757 5758 5758 5757 5757 5757 5758 5758 5759 5759 5759 5760 5760 5761 5761 5762 5762 5763 5763
5728 5727 5728 5730 5732 5732 5733 5734 5734 5735 5736 5737 5737 5738 5739 5739 5740 5740 5740 5739 5741 5743 5743 5742 5742 5744 5745 5745 5747 5747 5746 5743 5743 5744 5745 5746 5747 5747 5748 5748 5746 5743 5743 5744 5745 5747 5749 5750 5751 5750 5750 5751 5751 5752 5751 5746 5744 5746 5748 5749 5751 5752 5752 5752 5753 5754 5754 5755 5755 5755 5755 5755 5755 5755 5756 5756 5757 5757 5758 5758 5758 5759 5759 5760 5760 5761
5725 5725 5727 5729 5729 5730 5731 5731 5732 5733 5734 5734 5735 5735 5736 5737 5737 5738 5738 5738 5739 5741 5740 5739 5740 5741 5742 5744 5745 5745 5745 5742 5741 5742 5743 5744 5744 5745 5746 5746 5745 5743 5740 5741 5742 5744 5746 5747 5748 5748 5748 5749 5749 5749 5748 5744 5742 5745 5747 5747 5749 5750 5750 5750 5750 5751 5752 5752 5752 5753 5753 5753 5753 5753 5753 5754 5754 5755 5755 5756 5756 5757 5757 5757 5758 5758
5723 5724 5724 5726 5727 5728 5729 5730 5730 5731 5731 5731 5732 5733 5733 5734 5735 5736 5736 5737 5737 5738 5737 5738 5738 5738 5739 5741 5742 5742 5741 5740 5740 5740 5741 5742 5742 5742 5743 5742 5742 5741 5739 5738 5739 5739 5739 5742 5744 5745 5745 5745 5745 5744 5742 5739 5741 5743 5744 5745 5746 5747 5748 5747 5747 5748 5749 5749 5749 5750 5751 5751 5751 5750 5751 5751 5752 5752 5752 5753 5753 5754 5755 5755 5755 5756
5721 5721 5722 5724 5725 5726 5727 5728 5728 5728 5729 5728 5729 5730 5731 5732 5733 5734 5734 5734 5734 5733 5734 5736 5736 5736 5736 5738 5739 5738 5737 5738 5739 5738 5738 5740 5740 5739 5739 5739 5740 5739 5738 5738 5737 5737 5738 5739 5739 5740 5740 5741 5742 5740 5737 5736 5739 5741 5742 5743 5743 5744 5745 5745 5744 5745 5746 5746 5747 5747 5748 5748 5748 5748 5749 5749 5749 5749 5750 5750 5751 5751 5751 5752 5752 5753
5719 5718 5719 5721 5722 5724 5725 5725 5725 5725 5726 5726 5727 5728 5729 5730 5731 5731 5730 5731 5731 5730 5731 5734 5734 5734 5733 5734 5737 5736 5734 5735 5736 5736 5735 5736 5736 5735 5736 5738 5738 5737 5736 5737 5736 5737 5739 5739 5738 5738 5737 5738 5739 5737 5735 5736 5737 5738 5739 5740 5740 5741 5742 5742 5742 5742 5743 5744 5744 5744 5745 5746 5746 5746 5746 5747 5747 5747 5747 5748 5748 5748 5749 5749 5750 5750
5716 5716 5717 5718 5719 5721 5721 5722 5722 5722 5724 5724 5725 5726 5727 5728 5728 5727 5727 5728 5728 5728 5730 5732 5731 5731 5730 5731 5733 5732 5731 5731 5733 5733 5732 5732 5732 5733 5735 5736 5735 5734 5735 5735 5734 5735 5737 5737 5737 5737 5736 5736 5736 5736 5736 5736 5736 5735 5736 5737 5737 5737 5738 5739 5739 5739 5740 5741 5742 5742 5742 5743 5744 5744 5744 5745 5745 5745 5745 5745 5745 5746 5746 5747 5747 5748
5714 5715 5715 5715 5716 5717 5718 5719 5720 5721 5722 5722 5723 5723 5724 5724 5724 5724 5725 5725 5725 5726 5728 5728 5728 5727 5727 5728 5730 5729 5728 5729 5730 5730 5729 5729 5731 5732 5733 5733 5731 5732 5732 5732 5733 5733 5733 5734 5734 5734 5734 5733 5734 5735 5736 5735 5735 5734 5734 5733 5732 5733 5734 5736 5737 5737 5738 5739 5739 5739 5740 5741 5741 5742 5742 5742 5743 5743 5743 5743 5743 5743 5744 5744 5745 5745
5712 5714 5714 5714 5714 5714 5715 5717 5718 5720 5720 5719 5720 5721 5721 5721 5721 5721 5722 5723 5723 5724 5725 5725 5724 5725 5725 5726 5727 5725 5725 5726 5727 5728 5726 5726 5728 5729 5729 5729 5729 5730 5730 5730 5730 5730 5730 5731 5731 5732 5731 5731 5731 5732 5733 5734 5734 5733 5730 5729 5729 5729 5730 5732 5733 5734 5735 5736 5737 5737 5737 5738 5739 5739 5740 5740 5740 5740 5740 5741 5741 5741 5742 5742 5743 5743
5711 5712 5712 5713 5714 5713 5713 5715 5716 5718 5718 5718 5718 5718 5718 5719 5719 5719 5720 5721 5721 5721 5721 5722 5722 5723 5724 5724 5723 5721 5722 5724 5724 5725 5724 5724 5725 5725 5725 5725 5726 5728 5727 5727 5727 5727 5727 5727 5728 5728 5729 5728 5727 5728 5730 5732 5732 5730 5729 5728 5729 5728 5727 5729 5731 5731 5732 5734 5734 5735 5735 5736 5736 5737 5738 5738 5738 5738 5738 5738 5738 5739 5739 5740 5740 5741
5709 5711 5711 5711 5712 5712 5712 5713 5714 5715 5716 5716 5716 5716 5716 5716 5717 5717 5718 5718 5719 5718 5718 5720 5721 5721 5721 5721 5720 5719 5721 5721 5721 5722 5722 5721 5721 5721 5722 5722 5723 5724 5724 5723 5724 5724 5724 5724 5725 5725 5725 5725 5724 5725 5726 5727 5728 5728 5727 5727 5727 5727 5725 5726 5727 5728 5730 5731 5732 5732 5733 5733 5734 5734 5735 5736 5736 5736 5736 5736 5736 5736 5737 5737 5738 5739
5707 5710 5711 5710 5709 5710 5711 5711 5712 5713 5714 5714 5714 5714 5714 5714 5715 5715 5715 5716 5716 5716 5717 5718 5719 5719 5719 5718 5717 5718 5719 5717 5717 5718 5719 5718 5718 5718 5718 5718 5719 5720 5720 5720 5721 5721 5721 5721 5722 5722 5722 5722 5722 5722 5723 5723 5724 5725 5725 5724 5724 5725 5724 5724 5724 5726 5727 5729 5729 5730 5730 5731 5731 5732 5733 5734 5734 5734 5734 5734 5734 5734 5734 5735 5735 5736
5704 5706 5707 5708 5708 5708 5708 5709 5710 5710 5711 5712 5713 5713 5712 5712 5713 5713 5713 5714 5713 5714 5715 5716 5716 5716 5717 5716 5715 5715 5716 5714 5714 5715 5714 5714 5714 5714 5714 5715 5715 5716 5716 5717 5717 5717 5718 5718 5719 5719 5720 5720 5720 5720 5720 5720 5721 5721 5722 5722 5722 5721 5720 5719 5720 5723 5725 5726 5727 5727 5728 5728 5728 5729 5730 5731 5733 5733 5732 5732 5732 5732 5732 5733 5733 5734
5702 5703 5703 5704 5706 5708 5707 5707 5708 5709 5709 5710 5710 5711 5711 5711 5711 5711 5711 5712 5711 5712 5713 5713 5714 5714 5715 5714 5712 5711 5712 5712 5711 5711 5710 5710 5710 5711 5712 5712 5712 5713 5713 5713 5714 5714 5714 5715 5715 5716 5717 5717 5717 5717 5717 5718 5718 5719 5719 5719 5719 5718 5717 5716 5716 5719 5721 5722 5723 5724 5725 5725 5725 5726 5727 5729 5731 5731 5731 5731 5730 5730 5730 5731 5731 5731
5699 5701 5701 5702 5704 5706 5706 5705 5706 5707 5707 5708 5708 5708 5708 5708 5709 5709 5710 5710 5710 5710 5710 5711 5711 5712 5711 5710 5710 5709 5708 5710 5709 5708 5708 5707 5707 5708 5710 5709 5709 5710 5710 5710 5710 5711 5711 5711 5711 5712 5713 5714 5714 5714 5715 5715 5715 5716 5716 5716 5716 5717 5717 5716 5713 5714 5716 5718 5720 5721 5721 5722 5722 5723 5724 5726 5727 5728 5728 5728 5728 5728 5729 5729 5729 5729
5696 5698 5699 5700 5701 5702 5703 5703 5704 5705 5705 5706 5707 5706 5706 5707 5707 5707 5707 5708 5708 5708 5708 5708 5708 5709 5708 5707 5707 5707 5706 5707 5707 5706 5705 5704 5704 5707 5707 5706 5706 5706 5706 5707 5707 5707 5708 5708 5708 5708 5709 5710 5711 5711 5712 5712 5712 5712 5713 5712 5713 5714 5715 5714 5712 5710 5712 5715 5716 5717 5718 5718 5719 5719 5721 5723 5723 5724 5725 5726 5726 5726 5726 5727 5727 5727
5693 5695 5696 5698 5699 5699 5700 5701 5701 5701 5702 5703 5704 5704 5704 5705 5704 5703 5704 5705 5706 5705 5705 5705 5705 5706 5705 5705 5705 5704 5703 5703 5704 5704 5702 5699 5701 5704 5704 5703 5704 5703 5703 5703 5704 5704 5704 5705 5705 5705 5705 5706 5707 5708 5708 5708 5709 5709 5710 5710 5710 5711 5711 5712 5712 5711 5711 5712 5713 5714 5715 5715 5715 5716 5718 5719 5719 5720 5722 5723 5723 5723 5723 5724 5725 5725
5690 5692 5694 5695 5696 5696 5697 5698 5698 5697 5699 5701 5701 5701 5701 5702 5701 5701 5702 5702 5702 5702 5702 5703 5703 5702 5701 5701 5702 5701 5700 5701 5702 5702 5699 5695 5698 5702 5701 5700 5700 5700 5700 5700 5700 5701 5701 5702 5702 5702 5702 5703 5703 5704 5704 5705 5705 5705 5706 5707 5707 5708 5709 5710 5710 5709 5708 5708 5709 5710 5711 5711 5711 5712 5713 5715 5715 5716 5718 5719 5719 5720 5721 5721 5721 5722
5688 5690 5691 5692 5693 5694 5694 5696 5697 5696 5696 5697 5698 5698 5698 5698 5699 5699 5699 5699 5699 5699 5700 5700 5700 5699 5698 5698 5699 5699 5698 5698 5698 5697 5694 5692 5695 5698 5697 5696 5697 5696 5697 5697 5697 5698 5698 5698 5699 5699 5699 5699 5700 5700 5700 5701 5701 5701 5702 5702 5703 5705 5706 5707 5706 5706 5706 5706 5706 5706 5707 5707 5708 5708 5709 5710 5711 5712 5714 5715 5716 5716 5718 5718 5719 5719
5686 5686 5687 5688 5689 5691 5692 5693 5695 5694 5693 5693 5693 5692 5693 5694 5695 5695 5695 5695 5694 5695 5697 5697 5697 5696 5695 5695 5695 5695 5695 5696 5695 5692 5690 5690 5692 5693 5693 5693 5693 5693 5693 5694 5694 5694 5694 5694 5695 5695 5695 5696 5696 5697 5697 5697 5697 5698 5698 5698 5699 5700 5702 5703 5703 5703 5704 5704 5705 5704 5704 5704 5706 5706 5707 5707 5707 5708 5710 5711 5712 5712 5713 5714 5716 5716
5682 5681 5683 5684 5685 5687 5689 5690 5690 5689 5687 5688 5687 5687 5688 5690 5691 5691 5691 5690 5691 5692 5693 5693 5693 5693 5692 5691 5691 5691 5691 5692 5692 5690 5687 5687 5687 5687 5688 5688 5689 5689 5689 5689 5690 5690 5690 5690 5690 5691 5691 5691 5692 5693 5693 5693 5694 5694 5695 5695 5696 5696 5697 5699 5700 5700 5700 5700 5701 5701 5701 5702 5702 5703 5704 5704 5704 5705 5706 5707 5708 5709 5709 5710 5711 5712
5676 5676 5679 5680 5680 5682 5684 5684 5685 5684 5683 5684 5684 5684 5685 5686 5687 5687 5686 5687 5688 5688 5688 5689 5690 5689 5689 5687 5686 5686 5687 5687 5688 5687 5684 5683 5683 5682 5683 5684 5684 5684 5684 5685 5685 5685 5685 5685 5686 5686 5686 5686 5687 5688 5689 5689 5690 5690 5691 5692 5693 5693 5693 5694 5695 5696 5696 5696 5696 5697 5697 5697 5698 5698 5699 5700 5701 5702 5702 5703 5703 5704 5705 5706 5706 5707
5671 5672 5674 5674 5675 5677 5678 5679 5680 5679 5679 5680 5680 5680 5681 5681 5681 5682 5683 5684 5684 5682 5684 5686 5684 5684 5685 5684 5681 5681 5682 5682 5682 5682 5680 5679 5678 5677 5678 5679 5678 5678 5679 5679 5679 5680 5680 5680 5681 5681 5681 5681 5682 5682 5684 5685 5685 5686 5687 5687 5688 5689 5689 5690 5690 5691 5692 5692 5693 5692 5692 5693 5694 5694 5695 5696 5697 5697 5697 5698 5698 5699 5700 5701 5701 5702
5666 5667 5668 5669 5670 5671 5672 5673 5674 5674 5674 5675 5675 5676 5676 5676 5676 5676 5677 5678 5678 5677 5678 5680 5679 5680 5681 5679 5677 5677 5677 5677 5678 5677 5675 5675 5674 5672 5673 5674 5674 5674 5674 5674 5674 5674 5674 5675 5675 5675 5675 5675 5676 5677 5678 5679 5680 5681 5682 5682 5683 5684 5685 5685 5686 5686 5686 5687 5688 5688 5688 5688 5689 5690 5691 5692 5692 5692 5693 5694 5694 5694 5695 5696 5697 5698
5661 5662 5662 5663 5664 5665 5667 5667 5667 5667 5668 5669 5670 5671 5671 5671 5670 5670 5671 5672 5672 5671 5672 5673 5673 5675 5676 5673 5672 5673 5673 5673 5673 5672 5671 5671 5670 5668 5668 5669 5670 5669 5668 5668 5667 5668 5668 5669 5669 5669 5669 5670 5670 5671 5672 5673 5674 5676 5677 5677 5677 5678 5679 5680 5680 5681 5681 5682 5682 5683 5683 5683 5684 5685 5686 5687 5687 5688 5688 5689 5689 5690 5690 5691 5692 5693
5655 5656 5656 5657 5658 5659 5661 5661 5661 5661 5661 5662 5665 5666 5665 5664 5664 5664 5664 5666 5666 5666 5666 5666 5666 5669 5670 5666 5666 5668 5668 5667 5667 5667 5665 5665 5664 5663 5663 5664 5665 5664 5663 5662 5661 5660 5662 5663 5663 5663 5663 5664 5665 5665 5666 5667 5668 5670 5671 5672 5672 5672 5673 5674 5674 5675 5676 5676 5677 5677 5677 5678 5678 5678 5679 5680 5681 5682 5682 5683 5684 5684 5684 5685 5686 5687
5650 5650 5650 5651 5652 5652 5654 5654 5654 5654 5653 5655 5658 5659 5658 5657 5658 5658 5659 5660 5660 5659 5659 5658 5660 5662 5661 5658 5659 5661 5660 5660 5660 5660 5658 5657 5658 5658 5657 5658 5659 5658 5658 5658 5655 5654 5655 5657 5657 5658 5658 5658 5659 5660 5661 5661 5663 5665 5667 5666 5665 5666 5667 5667 5668 5668 5669 5670 5671 5671 5671 5672 5672 5672 5672 5673 5674 5674 5675 5677 5677 5678 5678 5678 5679 5680
5645 5644 5645 5645 5645 5646 5648 5648 5647 5647 5647 5649 5652 5652 5651 5651 5651 5653 5653 5653 5653 5652 5650 5651 5652 5652 5651 5650 5652 5653 5652 5651 5652 5652 5652 5652 5652 5653 5653 5653 5652 5652 5653 5653 5650 5649 5649 5649 5650 5653 5653 5653 5653 5654 5656 5656 5657 5660 5661 5659 5659 5661 5661 5661 5661 5662 5663 5664 5664 5665 5665 5666 5666 5666 5667 5668 5668 5668 5668 5670 5671 5672 5672 5673 5673 5674
5639 5639 5639 5638 5638 5640 5642 5642 5641 5640 5641 5644 5646 5645 5644 5644 5645 5646 5646 5647 5647 5645 5644 5645 5644 5642 5643 5645 5645 5645 5644 5644 5644 5645 5646 5646 5646 5647 5648 5648 5646 5646 5648 5647 5644 5644 5643 5640 5643 5648 5649 5647 5648 5649 5649 5650 5651 5653 5654 5654 5654 5655 5655 5654 5655 5656 5656 5657 5657 5658 5659 5659 5660 5660 5661 5662 5662 5662 5662 5663 5664 5665 5666 5667 5667 5667
5633 5632 5632 5632 5633 5634 5635 5635 5634 5634 5636 5639 5640 5637 5635 5636 5638 5639 5640 5640 5640 5638 5639 5639 5637 5636 5637 5639 5637 5637 5637 5636 5636 5638 5638 5638 5639 5641 5642 5642 5641 5641 5642 5641 5637 5637 5636 5634 5637 5643 5643 5641 5642 5643 5642 5642 5644 5646 5647 5647 5648 5649 5648 5648 5649 5649 5650 5650 5651 5652 5652 5653 5654 5654 5655 5655 5656 5656 5656 5657 5658 5658 5659 5660 5660 5661
5626 5626 5626 5626 5627 5628 5629 5629 5627 5628 5631 5631 5630 5628 5627 5628 5631 5632 5634 5634 5632 5631 5632 5632 5630 5630 5630 5630 5630 5630 5629 5629 5628 5629 5630 5632 5635 5635 5634 5636 5636 5635 5634 5633 5630 5630 5630 5630 5631 5634 5635 5634 5635 5635 5634 5635 5638 5639 5639 5639 5641 5641 5641 5642 5643 5643 5644 5644 5645 5645 5646 5647 5648 5648 5649 5649 5649 5650 5650 5651 5651 5651 5652 5652 5653 5653
5620 5620 5619 5620 5621 5622 5623 5622 5622 5622 5623 5622 5622 5621 5621 5622 5622 5624 5627 5627 5624 5623 5624 5623 5622 5622 5622 5623 5624 5622 5621 5623 5623 5621 5622 5626 5628 5628 5627 5628 5628 5626 5625 5625 5624 5625 5626 5625 5624 5625 5626 5627 5628 5627 5628 5629 5630 5632 5632 5632 5633 5634 5634 5635 5636 5636 5637 5638 5638 5639 5640 5641 5641 5641 5642 5643 5643 5643 5644 5644 5645 5645 5645 5645 5646 5646
5614 5613 5613 5614 5616 5616 5616 5616 5616 5616 5615 5615 5615 5616 5616 5616 5615 5615 5618 5618 5615 5616 5617 5615 5615 5615 5616 5617 5617 5615 5614 5616 5616 5613 5614 5617 5618 5618 5619 5619 5619 5618 5618 5619 5619 5620 5619 5617 5616 5617 5618 5620 5622 5621 5621 5621 5622 5623 5625 5625 5626 5626 5627 5628 5628 5629 5630 5631 5631 5632 5633 5634 5635 5635 5635 5635 5636 5636 5637 5637 5637 5638 5638 5638 5639 5640
5609 5609 5609 5609 5610 5610 5610 5609 5610 5609 5609 5609 5609 5608 5609 5610 5609 5608 5609 5608 5607 5608 5610 5609 5607 5608 5609 5609 5609 5609 5608 5607 5606 5605 5607 5608 5607 5608 5611 5610 5609 5610 5611 5611 5611 5611 5609 5608 5608 5609 5610 5613 5615 5615 5613 5613 5614 5616 5617 5618 5618 5619 5620 5620 5621 5622 5622 5623 5624 5625 5626 5627 5628 5628 5628 5628 5629 5629 5629 5629 5630 5630 5631 5631 5632 5633
5604 5604 5604 5604 5605 5605 5604 5603 5604 5603 5602 5603 5603 5602 5602 5602 5603 5603 5601 5599 5600 5601 5602 5601 5599 5600 5601 5601 5602 5602 5600 5598 5597 5598 5600 5599 5597 5599 5601 5601 5601 5602 5603 5603 5602 5600 5599 5600 5601 5602 5603 5606 5608 5607 5606 5606 5607 5608 5609 5610 5611 5612 5612 5613 5614 5614 5615 5615 5617 5618 5618 5619 5620 5621 5621 5622 5621 5622 5622 5622 5622 5622 5623 5624 5625 5626
5597 5598 5598 5599 5599 5599 5598 5598 5599 5597 5596 5596 5597 5596 5595 5595 5596 5595 5593 5592 5594 5593 5592 5592 5592 5591 5592 5593 5594 5594 5592 5590 5590 5592 5592 5591 5590 5591 5593 5593 5593 5594 5595 5595 5594 5592 5591 5593 5594 5596 5597 5598 5599 5599 5599 5598 5599 5600 5601 5602 5603 5604 5605 5605 5606 5607 5608 5608 5609 5610 5611 5611 5612 5613 5614 5614 5614 5615 5615 5616 5615 5615 5616 5616 5617 5618
5591 5591 5592 5593 5593 5593 5593 5593 5592 5591 5590 5590 5590 5589 5588 5588 5587 5585 5584 5586 5587 5586 5585 5585 5584 5583 5584 5584 5585 5585 5584 5583 5583 5585 5585 5584 5583 5583 5585 5585 5585 5585 5586 5586 5586 5586 5585 5586 5586 5588 5589 5589 5589 5590 5591 5591 5592 5593 5594 5595 5596 5596 5597 5598 5599 5600 5600 5601 5602 5603 5604 5604 5605 5605 5606 5606 5606 5607 5608 5609 5609 5609 5609 5609 5610 5611
5587 5586 5586 5587 5587 5587 5587 5586 5585 5585 5584 5583 5582 5582 5581 5580 5579 5577 5578 5579 5578 5578 5578 5578 5577 5576 5575 5575 5575 5576 5577 5576 5576 5577 5578 5578 5576 5576 5576 5576 5576 5576 5577 5577 5578 5578 5578 5578 5578 5579 5579 5580 5580 5582 5583 5583 5584 5585 5586 5587 5588 5589 5590 5591 5592 5592 5593 5595 5596 5596 5597 5597 5598 5598 5599 5599 5599 5600 5601 5602 5602 5602 5602 5602 5603 5604
5582 5582 5582 5582 5581 5581 5581 5580 5578 5578 5578 5576 5576 5575 5573 5572 5571 5571 5572 5572 5571 5571 5571 5571 5570 5569 5567 5567 5567 5567 5568 5569 5569 5569 5570 5570 5569 5568 5567 5567 5567 5567 5568 5568 5569 5569 5570 5570 5571 5571 5571 5572 5572 5573 5574 5575 5575 5576 5578 5579 5581 5581 5582 5583 5584 5585 5586 5588 5589 5589 5590 5591 5591 5592 5592 5593 5593 5593 5594 5595 5595 5595 5595 5596 5596 5597
5576 5576 5576 5576 5575 5575 5575 5574 5572 5571 5571 5570 5568 5567 5566 5566 5566 5565 5565 5564 5563 5563 5563 5562 5562 5562 5560 5560 5560 5560 5560 5559 5559 5560 5560 5561 5560 5560 5560 5559 5559 5559 5559 5560 5560 5561 5561 5562 5563 5563 5563 5563 5564 5564 5565 5566 5567 5569 5570 5572 5572 5573 5575 5575 5576 5578 5579 5580 5581 5583 5583 5584 5585 5585 5586 5586 5587 5587 5587 5588 5589 5589 5589 5589 5589 5590
5569 5571 5571 5570 5570 5569 5569 5569 5567 5566 5565 5563 5560 5560 5560 5560 5559 5557 5557 5556 5556 5556 5556 5555 5556 5556 5554 5553 5552 5552 5551 5550 5549 5550 5551 5551 5552 5552 5552 5552 5552 5551 5551 5551 5552 5552 5551 5552 5553 5554 5554 5554 5555 5555 5556 5557 5559 5561 5562 5563 5564 5566 5567 5567 5568 5570 5571 5573 5574 5575 5576 5577 5578 5579 5580 5580 5581 5581 5581 5581 5582 5583 5584 5584 5583 5584
5563 5565 5566 5564 5564 5563 5563 5562 5561 5560 5559 5558 5556 5555 5554 5552 5551 5550 5550 5550 5550 5549 5548 5547 5547 5547 5547 5546 5545 5544 5544 5543 5541 5541 5541 5541 5543 5544 5544 5543 5544 5543 5542 5542 5543 5543 5542 5543 5544 5544 5545 5546 5547 5547 5547 5549 5551 5552 5554 5555 5556 5558 5558 5559 5561 5563 5564 5565 5567 5569 5570 5571 5572 5573 5574 5573 5573 5574 5574 5575 5577 5577 5578 5578 5578 5579
5558 5560 5559 5558 5557 5557 5557 5556 5555 5554 5554 5552 5551 5549 5547 5546 5546 5546 5544 5543 5542 5541 5540 5539 5539 5539 5539 5538 5537 5537 5537 5536 5534 5533 5533 5533 5533 5534 5534 5534 5535 5535 5534 5534 5534 5534 5533 5534 5535 5535 5536 5537 5538 5538 5539 5541 5543 5544 5545 5547 5548 5549 5550 5551 5553 5555 5556 5558 5560 5561 5563 5564 5565 5566 5566 5566 5566 5567 5567 5569 5571 5572 5572 5573 5573 5573
5555 5554 5553 5552 5552 5551 5551 5550 5548 5548 5548 5546 5545 5543 5541 5540 5540 5539 5537 5535 5534 5533 5532 5532 5531 5531 5530 5529 5528 5527 5528 5528 5526 5524 5524 5524 5524 5524 5524 5525 5525 5525 5525 5525 5525 5525 5525 5526 5527 5527 5528 5529 5529 5529 5530 5533 5534 5535 5536 5538 5539 5540 5541 5543 5545 5547 5549 5552 5553 5554 5555 5556 5558 5559 5558 5558 5559 5561 5562 5563 5565 5566 5566 5567 5567 5567
5550 5550 5549 5548 5547 5546 5545 5543 5542 5541 5541 5539 5537 5536 5534 5533 5532 5531 5530 5528 5527 5526 5525 5524 5524 5523 5522 5521 5520 5518 5518 5518 5517 5516 5516 5516 5515 5515 5515 5515 5515 5515 5515 5515 5515 5516 5516 5517 5518 5518 5519 5520 5521 5520 5520 5523 5526 5527 5528 5530 5532 5532 5534 5536 5537 5539 5542 5544 5546 5547 5548 5549 5550 5551 5550 5551 5553 5556 5557 5558 5559 5560 5560 5560 5561 5562
5546 5546 5545 5544 5542 5541 5540 5538 5536 5534 5533 5532 5530 5529 5527 5526 5525 5524 5522 5521 5520 5519 5518 5517 5516 5515 5514 5513 5511 5510 5509 5509 5508 5507 5507 5507 5506 5505 5505 5505 5505 5505 5505 5505 5505 5506 5507 5507 5508 5508 5509 5510 5511 5511 5512 5514 5517 5519 5520 5522 5524 5525 5526 5528 5529 5531 5533 5536 5539 5540 5541 5541 5542 5543 5543 5545 5548 5550 5551 5552 5552 5553 5554 5554 5554 5556